Location: Peterborough
(44.3091°N, 78.3197°W)
Time: 03:14:23
(UTC-04:00)

Tiros 1 - Pass Details

Date: 02 April 2023
Orbit: 627 x 661 km, 48.4° (Epoch: 09 June)

Event Time Altitude Azimuth Distance (km) Brightness Sun altitude
Rises 04:20:45 0° 246° (WSW) 2,967 - -25.9°
Reaches altitude 10° 04:23:05 10° 247° (WSW) 2,062 - -25.5°
Maximum altitude 04:27:52 88° 336° (NNW) 664 - -24.8°
Exits shadow 04:27:52 88° 340° (NNW) 664 7.1 -24.8°
Drops below altitude 10° 04:32:41 10° 67° (ENE) 2,078 10.8 -24.1°
Sets 04:35:02 0° 68° (ENE) 2,993 11.9 -23.8°
